Temperature
26 27 27 27 27 27 27 27 27 28 28 28 28 27 26 25 24 23 22 22 21 20 19 19 18 18 18 17 17 17 17 17 17 17 17 16 16 16 16 16 16 16 16 16
25 26 26 26 26 26 26 27 27 27 28 28 27 26 25 24 24 23 22 21 20 20 19 18 18 18 18 17 17 17 17 17 17 17 17 16 16 16 16 16 16 16 16 16
24 25 25 25 26 26 26 27 27 27 27 27 26 25 24 23 23 23 22 21 20 19 19 18 18 18 18 17 17 17 17 17 17 17 16 16 16 16 16 16 16 16 16 16
23 23 22 25 26 26 25 26 26 26 26 25 24 23 21 21 21 21 21 20 19 19 18 18 18 18 18 17 17 17 17 17 17 17 17 17 16 16 16 16 16 16 16 16
22 23 23 24 24 24 24 24 25 25 24 24 22 22 20 19 19 19 18 18 18 18 18 18 18 18 17 17 17 17 16 16 16 16 16 16 16 16 16 16 16 16 16 15
21 21 22 23 23 22 23 23 23 23 23 22 22 23 21 17 17 17 17 17 17 17 17 17 17 17 17 17 16 16 16 16 16 16 16 16 16 16 16 16 16 15 15 15
20 21 22 22 22 22 22 21 20 20 21 21 21 20 17 16 16 16 16 16 16 16 16 16 16 16 16 16 16 16 16 16 16 16 16 16 16 15 15 15 15 15 14 14
20 20 20 21 21 21 20 19 19 19 18 18 17 16 15 15 15 15 15 15 15 15 15 15 15 16 15 15 15 15 15 15 15 15 15 15 15 15 15 14 14 14 14 14
20 20 19 18 18 17 17 17 17 17 17 16 15 15 14 14 14 14 14 14 14 14 14 14 14 15 15 14 14 14 14 14 14 14 14 14 14 14 14 14 14 13 13 13
18 19 18 17 16 16 16 16 16 16 15 15 14 14 13 13 13 13 13 13 13 13 13 13 13 14 14 13 14 14 13 13 13 13 13 13 13 13 13 13 13 13 13 12
17 17 17 16 15 15 15 15 15 15 14 14 14 13 12 12 12 12 12 12 12 13 13 13 13 13 13 13 13 13 13 13 13 13 12 12 12 12 12 12 12 12 12 12
16 16 15 14 14 14 14 14 14 13 13 12 12 12 12 11 11 12 12 12 12 12 12 12 12 12 12 12 12 12 12 12 12 12 12 12 12 12 12 11 11 11 11 11
15 14 13 13 13 13 13 12 12 12 11 11 11 11 11 11 11 11 11 11 11 11 11 11 11 11 11 12 12 12 12 12 12 12 12 12 12 12 11 11 11 11 11 11
13 13 13 12 12 12 12 11 11 11 11 11 11 11 11 11 11 11 11 11 11 11 11 11 11 11 11 11 11 11 11 11 11 11 11 11 11 11 11 11 11 11 10 10
13 13 12 12 11 11 11 11 11 11 10 10 10 11 11 10 10 10 10 10 10 11 10 10 10 10 10 10 11 11 11 11 10 11 11 11 11 11 11 11 11 11 10 10
12 12 12 11 11 11 11 11 11 11 11 10 10 10 10 10 10 10 10 10 10 10 10 10 10 10 10 10 10 10 10 10 10 10 10 10 10 10 10 10 10 10 10 10
12 12 12 11 11 11 11 11 11 11 11 11 10 10 10 10 10 10 10 10 10 10 10 10 9 9 9 9 9 10 10 10 9 10 10 10 10 10 10 10 10 10 9 9
12 12 12 11 11 11 11 11 11 11 11 10 10 10 10 10 10 10 10 9 9 9 9 9 9 9 9 9 9 9 9 9 9 9 9 9 9 9 9 9 9 9 9 9
12 12 12 11 11 11 11 11 11 10 10 10 10 10 10 10 9 9 9 9 9 9 8 9 9 8 8 8 8 8 9 9 9 9 8 8 8 8 8 8 8 8 8 8
11 11 11 11 11 11 11 11 10 10 10 10 10 10 9 9 9 9 9 9 9 8 8 8 8 8 8 8 8 8 8 8 8 8 8 8 8 7 7 7 7 7 7 6
11 11 11 11 11 11 10 10 10 10 10 10 10 9 9 9 9 9 9 8 8 8 7 7 7 7 7 7 7 7 7 7 7 7 7 7 6 6 6 6 6 6 6 5
11 11 10 10 10 10 10 10 10 10 9 9 9 9 9 8 8 8 8 8 7 7 7 7 7 6 6 6 6 6 6 6 6 6 6 5 5 5 5 5 4 4 4 4
10 10 10 10 10 10 9 9 9 9 9 9 9 8 8 8 8 8 7 7 6 6 6 6 6 6 6 5 5 5 5 5 5 5 5 4 4 4 4 3 3 3 3 3
9 9 9 9 9 9 9 9 9 8 8 8 8 7 8 8 7 7 6 6 6 6 5 5 5 5 5 5 5 4 4 4 4 4 4 3 3 3 2 2 2 2 2 2
9 9 9 9 9 9 8 8 8 8 8 8 7 7 7 7 6 6 5 5 5 5 5 4 4 4 4 4 4 3 3 3 3 3 3 2 2 2 2 2 1 1 1 1
9 9 9 9 8 8 9 9 8 8 8 7 7 7 6 6 5 5 5 4 4 4 4 3 3 3 3 3 3 3 3 2 2 2 2 2 1 1 1 1 1 1 1 1
8 8 8 8 8 8 8 8 8 7 7 7 6 6 5 5 5 4 4 4 4 3 3 3 3 3 2 2 2 2 2 2 1 1 1 1 1 1 0 0 0 0 0 1
Wind_Speed
11 8 8 11 13 13 15 16 16 14 12 8 4 3 2 3 7 9 10 11 12 12 12 12 12 11 11 11 11 11 11 11 11 11 11 11 10 10 10 10 10 10 10 10
11 11 12 14 14 15 16 17 18 17 14 6 4 3 2 3 6 9 10 11 11 12 12 12 12 11 11 10 10 11 11 11 10 10 10 10 10 10 9 9 9 9 10 10
12 10 11 16 14 15 15 15 15 16 12 6 5 3 2 2 5 7 8 10 11 12 11 11 11 11 11 10 10 10 10 10 10 10 10 10 10 10 10 10 10 10 9 9
10 9 14 7 3 7 11 13 12 11 8 5 4 1 1 1 2 4 5 7 8 10 10 10 10 10 10 10 10 10 10 9 9 9 9 9 9 9 9 9 9 9 9 10
9 12 12 7 3 5 8 10 6 6 6 4 1 2 2 4 3 3 4 5 6 7 9 9 10 10 10 10 10 9 8 7 7 7 8 8 8 8 8 7 8 8 8 9
9 11 11 3 1 4 7 9 1 3 4 3 4 6 2 5 5 5 6 6 7 7 8 8 8 10 10 10 9 8 7 6 5 5 6 6 5 5 5 6 6 6 5 5
12 11 8 2 4 4 8 2 5 5 3 3 3 2 5 6 6 7 7 8 8 8 8 7 8 9 9 9 7 6 6 6 6 5 5 4 4 3 3 4 3 3 2 1
8 9 6 3 4 4 5 7 6 5 2 2 5 7 7 8 8 9 9 10 10 10 10 9 9 10 10 8 7 7 7 7 6 5 5 5 5 4 3 3 3 3 2 2
4 4 3 4 5 6 6 5 4 2 2 5 7 9 10 10 10 10 11 11 11 12 13 12 11 11 11 9 8 9 9 8 7 7 5 4 4 4 3 3 2 2 2 1
5 4 4 5 5 4 4 3 1 1 4 7 10 11 11 11 11 11 12 12 12 13 14 13 12 12 11 9 9 10 10 9 8 7 7 6 4 3 3 2 2 1 1 1
6 4 3 3 5 5 4 3 3 5 7 10 13 13 13 12 12 12 12 12 13 13 14 14 12 12 11 10 10 11 10 9 8 8 7 7 7 6 5 5 4 2 1 1
3 2 2 3 5 5 4 6 8 11 13 13 14 15 15 13 12 12 13 13 14 14 14 14 13 12 11 10 9 9 8 8 7 6 6 5 6 6 9 7 7 7 7 5
1 3 4 4 5 7 9 10 12 14 15 15 15 15 15 14 14 14 14 14 14 14 14 13 13 13 12 11 10 10 9 8 7 6 6 5 4 4 3 4 5 5 4 4
2 2 4 5 7 9 12 14 15 16 16 15 14 15 15 15 15 15 14 13 14 14 13 13 13 13 11 10 10 10 9 8 7 6 5 5 4 3 3 2 1 1 3 5
4 5 7 8 9 11 13 14 16 16 16 16 15 15 15 15 14 14 13 13 13 14 13 13 13 11 10 10 10 9 8 7 6 5 4 4 3 3 3 3 3 3 2 2
8 9 10 11 13 13 14 14 15 15 15 16 15 15 14 14 14 13 12 12 13 13 12 11 11 10 9 9 8 7 7 7 5 4 4 4 4 3 3 3 4 4 4 5
10 10 12 13 14 14 14 14 14 15 15 15 15 14 14 14 14 13 12 12 12 11 11 10 9 9 8 8 6 5 5 4 2 3 5 4 4 4 4 4 5 5 5 4
10 12 12 14 15 16 16 15 15 15 14 14 14 13 13 13 12 11 10 10 10 11 10 9 8 7 8 8 6 5 4 4 4 5 4 4 5 5 5 5 6 6 6 4
14 14 14 15 15 15 15 14 14 14 13 13 13 12 12 11 10 9 8 8 8 8 8 8 7 6 7 8 6 4 4 5 5 5 5 4 5 5 6 6 7 7 7 7
15 15 15 15 15 15 14 14 13 12 12 12 12 12 11 9 9 8 8 8 8 7 6 6 6 6 6 7 7 5 5 6 6 5 5 6 6 6 6 6 7 7 7 7
15 15 15 15 15 14 13 13 13 12 11 11 10 10 9 8 7 6 5 7 7 6 5 4 5 6 6 6 6 5 6 6 6 6 6 6 6 6 7 7 7 7 8 8
13 14 15 14 14 13 12 11 11 11 10 9 9 8 8 7 7 7 7 6 5 5 4 4 6 7 8 8 5 6 6 6 6 6 6 6 6 7 7 8 8 8 8 8
12 13 13 13 12 12 12 11 10 10 9 9 8 7 6 5 4 4 5 5 5 5 5 6 7 8 10 6 5 5 6 6 6 6 6 6 6 6 7 7 7 8 8 8
12 12 12 11 11 12 11 10 10 9 9 8 7 6 5 5 5 6 6 6 6 5 5 7 7 8 8 4 5 5 6 6 6 6 6 6 6 6 6 7 7 7 8 9
11 11 11 10 9 9 10 10 9 8 8 7 7 7 6 5 5 5 5 6 5 4 4 5 4 6 5 5 5 5 5 6 6 7 6 6 6 6 6 7 7 7 8 8
9 9 8 8 7 7 6 6 6 6 6 6 6 6 5 5 5 5 4 5 5 5 4 4 5 4 5 5 6 6 6 5 5 6 6 6 7 7 7 8 9 7 7 8
9 8 7 7 7 6 6 6 6 5 5 5 5 5 5 4 5 5 5 5 5 5 5 5 5 5 5 6 6 6 6 6 6 6 6 6 6 6 7 8 7 7 7 7
Wind_Direction
262 272 260 251 245 237 240 251 261 266 266 268 268 285 268 204 181 177 176 177 178 177 175 175 176 177 180 181 181 180 182 184 186 190 191 192 192 193 194 197 200 202 207 209
253 254 255 255 252 249 247 251 256 262 265 270 274 285 263 203 186 183 180 179 178 176 174 175 176 177 177 178 178 178 182 184 183 183 184 186 188 189 191 197 202 201 206 208
254 250 257 251 247 248 248 248 252 255 261 255 263 271 272 199 190 184 178 177 175 174 174 174 175 174 174 173 171 173 177 180 178 179 181 185 187 189 191 194 197 201 206 209
256 252 248 253 266 263 262 259 259 262 262 265 277 349 38 37 180 170 168 167 167 168 167 169 168 168 169 167 168 170 173 176 177 179 180 182 186 190 193 194 196 200 204 209
248 249 255 246 258 278 269 262 266 261 254 253 188 176 126 68 76 110 128 137 145 153 156 157 160 160 158 159 160 163 165 169 172 175 178 182 186 191 191 193 197 204 206 211
243 251 253 248 9 319 270 247 320 311 268 237 218 234 155 88 83 91 99 108 117 124 132 140 149 151 150 149 151 153 154 152 152 159 167 174 181 184 183 191 199 203 205 210
244 248 254 334 340 281 245 281 1 333 291 250 256 27 90 96 91 92 95 98 102 106 110 117 128 135 136 134 136 137 134 130 130 136 140 144 152 163 173 182 181 185 177 176
239 243 244 16 317 292 324 339 331 333 349 60 83 98 99 99 96 95 95 95 95 94 92 94 106 115 115 115 119 120 117 113 111 112 115 119 123 124 137 152 152 148 154 174
256 267 1 350 326 322 316 309 318 348 71 114 115 112 106 102 97 93 93 94 93 94 91 87 89 97 100 99 104 107 104 101 99 98 94 96 110 118 122 128 139 154 176 194
263 268 320 339 339 337 335 324 332 103 124 127 121 115 109 102 96 92 90 91 92 91 89 86 86 87 91 95 97 98 97 96 95 93 91 81 68 74 81 84 103 139 158 187
264 290 316 355 0 359 5 30 72 98 110 115 113 110 106 100 94 90 87 86 87 87 86 83 82 82 83 87 91 93 92 91 90 87 85 81 72 53 51 53 44 31 41 41
289 358 349 348 360 10 57 84 98 100 94 94 101 102 100 96 93 92 90 88 86 84 83 81 78 77 77 81 86 90 91 86 86 87 86 87 91 83 59 60 71 62 43 30
335 35 53 59 56 70 83 91 96 99 100 99 96 99 99 97 95 93 90 89 87 85 83 80 77 73 70 74 77 78 78 76 76 75 78 78 78 79 86 93 100 98 93 78
86 94 93 82 82 83 92 95 96 97 97 97 99 98 97 95 92 89 88 88 88 88 85 81 76 69 66 70 72 72 74 71 65 66 61 58 53 46 41 32 43 86 140 149
105 110 111 107 98 96 100 104 105 105 105 104 103 102 100 98 96 93 92 91 88 84 80 77 72 64 60 65 67 65 64 62 54 51 49 45 35 26 23 15 357 346 346 149
114 112 114 111 108 106 106 107 108 109 110 109 106 104 104 103 100 97 94 91 88 83 77 73 67 58 54 57 64 69 66 56 36 32 32 30 24 11 3 353 340 336 338 344
126 124 120 117 115 112 110 109 109 110 108 106 105 106 106 103 99 95 92 89 86 81 75 69 62 55 49 42 39 46 51 57 35 18 28 19 7 358 351 341 337 333 333 7
120 121 122 121 119 115 112 110 109 108 108 109 109 107 106 104 101 99 96 94 89 78 66 60 53 49 46 38 24 17 22 22 18 16 11 4 353 339 335 334 332 329 327 333
111 112 113 113 114 114 113 111 109 108 110 112 110 106 104 102 101 99 94 89 85 79 64 54 38 39 42 29 5 8 7 7 6 5 358 350 331 339 339 333 332 332 331 331
112 111 111 112 113 113 113 113 111 109 110 112 110 108 104 102 100 97 91 79 64 59 58 41 35 36 33 24 352 6 8 5 3 359 354 351 350 346 343 341 339 338 335 332
115 114 113 111 109 107 108 110 111 109 107 107 107 106 104 100 95 90 86 83 69 49 50 52 39 34 29 6 339 5 9 7 3 1 0 356 354 350 349 346 342 339 337 335
111 112 111 110 108 107 106 107 109 110 109 106 105 106 105 101 96 87 74 64 65 29 24 42 44 33 1 337 2 10 10 6 4 2 1 357 352 349 348 345 342 340 339 336
106 108 109 108 107 107 105 104 104 104 104 103 101 97 90 79 73 78 78 61 54 37 34 44 33 8 335 344 7 10 9 5 1 358 357 355 352 349 346 345 345 343 341 340
105 106 106 107 108 108 106 104 103 102 101 98 93 90 91 92 81 69 70 77 52 36 49 55 29 354 329 6 13 11 7 2 357 354 352 351 353 352 349 345 343 343 342 340
109 110 112 114 113 110 111 112 110 106 101 94 92 86 74 68 71 66 63 64 61 43 56 70 42 346 360 17 15 9 7 7 357 349 353 354 354 354 352 349 348 346 345 344
105 105 100 96 97 107 110 105 100 95 93 91 84 77 75 73 74 72 68 66 61 49 41 41 33 16 23 20 15 9 6 5 2 3 5 2 0 0 358 353 349 349 348 347
109 108 107 104 99 93 91 89 87 84 82 84 84 80 77 70 66 62 59 56 55 51 46 40 33 29 25 21 18 16 14 14 12 10 10 9 7 3 358 351 350 352 351 349
Height
1443 1441 1443 1444 1444 1444 1447 1445 1447 1443 1441 1438 1441 1443 1447 1449 1452 1455 1458 1460 1463 1466 1469 1472 1475 1477 1480 1483 1485 1488 1490 1493 1495 1498 1502 1505 1508 1511 1514 1516 1519 1521 1524 1526
1448 1443 1443 1445 1442 1442 1442 1441 1441 1440 1439 1437 1442 1445 1447 1449 1450 1453 1456 1458 1461 1464 1467 1470 1473 1476 1478 1481 1484 1486 1489 1492 1494 1497 1499 1502 1505 1508 1511 1513 1516 1518 1520 1522
1450 1444 1446 1447 1439 1438 1438 1436 1437 1439 1437 1437 1441 1445 1447 1449 1450 1452 1454 1457 1459 1462 1465 1468 1471 1473 1476 1479 1482 1485 1487 1490 1493 1495 1498 1501 1504 1506 1508 1510 1512 1514 1516 1518
1450 1452 1460 1438 1433 1435 1436 1434 1433 1434 1436 1439 1442 1446 1448 1450 1451 1452 1453 1456 1458 1461 1463 1466 1469 1472 1475 1478 1481 1483 1486 1489 1491 1494 1496 1498 1501 1503 1505 1507 1509 1511 1512 1514
1452 1451 1445 1438 1437 1438 1439 1437 1434 1436 1438 1441 1444 1445 1448 1450 1451 1452 1453 1455 1457 1459 1462 1465 1468 1471 1474 1477 1480 1482 1484 1487 1489 1492 1494 1496 1498 1500 1502 1504 1506 1508 1509 1510
1452 1455 1453 1440 1438 1441 1442 1441 1438 1439 1440 1441 1442 1441 1446 1450 1451 1452 1453 1454 1456 1459 1461 1464 1467 1470 1473 1476 1479 1481 1483 1485 1488 1490 1492 1494 1496 1498 1499 1501 1502 1504 1506 1506
1452 1452 1442 1439 1441 1441 1446 1443 1443 1442 1442 1442 1442 1444 1450 1450 1451 1453 1454 1455 1457 1459 1461 1464 1467 1470 1472 1475 1478 1480 1482 1484 1486 1488 1490 1491 1493 1495 1496 1498 1499 1500 1502 1502
1451 1453 1449 1442 1441 1443 1444 1444 1444 1443 1443 1444 1446 1448 1450 1451 1452 1454 1455 1457 1458 1459 1462 1464 1467 1469 1472 1475 1478 1480 1482 1484 1485 1487 1489 1490 1491 1492 1494 1495 1496 1497 1498 1499
1447 1447 1446 1446 1446 1447 1446 1445 1444 1444 1445 1445 1447 1450 1451 1453 1455 1456 1458 1459 1461 1462 1464 1466 1469 1471 1473 1476 1479 1480 1482 1484 1485 1487 1488 1489 1490 1491 1492 1493 1494 1495 1496 1496
1448 1444 1446 1447 1447 1446 1445 1445 1445 1445 1446 1446 1448 1451 1454 1456 1458 1459 1461 1462 1464 1466 1467 1469 1471 1474 1476 1478 1480 1481 1483 1484 1486 1487 1488 1489 1490 1492 1492 1493 1493 1494 1495 1495
1447 1446 1447 1447 1447 1446 1445 1445 1445 1446 1447 1448 1450 1453 1456 1459 1461 1463 1464 1466 1468 1470 1472 1474 1476 1477 1479 1481 1483 1484 1485 1486 1488 1489 1490 1490 1491 1492 1492 1492 1493 1493 1494 1494
1448 1448 1449 1449 1448 1447 1446 1446 1447 1447 1449 1452 1453 1456 1459 1462 1465 1467 1469 1471 1473 1475 1477 1479 1480 1481 1483 1484 1486 1487 1488 1489 1490 1491 1492 1492 1493 1493 1493 1494 1493 1493 1493 1493
1450 1450 1450 1450 1450 1449 1448 1449 1449 1451 1453 1456 1459 1461 1464 1467 1470 1472 1474 1476 1478 1480 1482 1484 1485 1486 1487 1488 1489 1489 1490 1491 1492 1493 1494 1494 1495 1495 1495 1495 1494 1493 1493 1492
1451 1451 1451 1452 1452 1452 1451 1452 1453 1456 1459 1461 1464 1467 1469 1472 1475 1477 1480 1482 1483 1485 1487 1488 1489 1490 1491 1492 1492 1492 1493 1493 1494 1495 1495 1496 1496 1496 1496 1495 1495 1494 1492 1491
1452 1452 1453 1454 1455 1456 1456 1457 1459 1462 1465 1468 1470 1473 1475 1478 1480 1482 1485 1487 1488 1490 1491 1492 1493 1494 1495 1495 1495 1495 1495 1496 1496 1496 1496 1496 1496 1496 1495 1495 1494 1494 1493 1491
1453 1454 1455 1457 1459 1460 1461 1463 1464 1468 1470 1473 1476 1479 1481 1483 1486 1488 1490 1492 1493 1494 1495 1496 1497 1497 1497 1498 1497 1497 1497 1497 1497 1497 1497 1497 1496 1495 1495 1494 1494 1493 1491 1490
1454 1456 1458 1460 1462 1464 1466 1468 1470 1473 1476 1478 1481 1484 1487 1489 1490 1492 1494 1496 1497 1498 1499 1499 1500 1500 1500 1499 1500 1500 1499 1499 1498 1498 1498 1497 1496 1495 1495 1494 1493 1492 1490 1488
1457 1459 1461 1463 1465 1468 1471 1473 1476 1478 1481 1484 1487 1489 1491 1493 1495 1497 1498 1499 1500 1501 1501 1501 1501 1501 1501 1501 1500 1501 1500 1500 1499 1498 1497 1496 1495 1495 1494 1493 1491 1490 1488 1487
1460 1462 1465 1468 1470 1473 1475 1478 1481 1484 1486 1489 1491 1493 1495 1497 1499 1500 1501 1502 1503 1503 1503 1503 1503 1503 1502 1501 1501 1501 1500 1499 1498 1497 1496 1495 1494 1493 1492 1491 1489 1487 1486 1484
1464 1467 1470 1473 1475 1478 1480 1483 1486 1488 1491 1493 1495 1497 1499 1500 1502 1503 1503 1504 1504 1504 1504 1504 1504 1503 1502 1501 1501 1501 1500 1499 1497 1496 1495 1494 1493 1491 1490 1488 1487 1485 1483 1482
1469 1472 1475 1477 1480 1483 1485 1488 1490 1492 1495 1497 1499 1500 1501 1503 1504 1504 1505 1505 1505 1505 1505 1505 1504 1503 1502 1501 1501 1500 1499 1498 1496 1495 1494 1493 1491 1490 1488 1487 1485 1483 1481 1479
1473 1476 1479 1481 1484 1487 1490 1492 1494 1496 1498 1500 1501 1502 1503 1504 1505 1505 1506 1506 1506 1505 1506 1505 1504 1502 1501 1501 1501 1499 1498 1497 1496 1494 1493 1491 1490 1488 1487 1485 1483 1481 1479 1476
1478 1480 1483 1486 1488 1491 1493 1495 1497 1499 1501 1502 1503 1504 1505 1505 1506 1507 1507 1507 1506 1505 1505 1504 1502 1501 1500 1500 1500 1498 1497 1496 1495 1493 1492 1490 1488 1486 1485 1482 1480 1478 1476 1474
1482 1485 1487 1490 1492 1494 1496 1498 1500 1501 1503 1504 1504 1505 1506 1507 1507 1507 1507 1506 1505 1505 1504 1503 1501 1500 1500 1500 1499 1497 1496 1495 1493 1492 1490 1488 1486 1484 1482 1480 1478 1476 1474 1471
1486 1489 1491 1494 1496 1498 1499 1501 1502 1503 1504 1505 1506 1506 1507 1507 1507 1507 1506 1505 1505 1504 1504 1502 1501 1500 1500 1499 1498 1496 1495 1493 1492 1490 1488 1486 1484 1482 1480 1478 1476 1474 1471 1469
1490 1493 1495 1497 1499 1500 1502 1503 1504 1505 1506 1506 1507 1507 1507 1507 1507 1506 1506 1505 1505 1504 1503 1502 1501 1500 1499 1498 1497 1495 1494 1492 1491 1489 1487 1485 1483 1481 1478 1476 1474 1472 1469 1467
1494 1496 1498 1500 1501 1502 1503 1504 1505 1506 1507 1507 1507 1508 1508 1507 1507 1507 1506 1506 1505 1504 1503 1502 1501 1500 1499 1497 1496 1494 1493 1491 1490 1488 1486 1484 1482 1480 1477 1475 1473 1470 1468 1465